TITAN 3C TRANSTAGE DEB, 1883

Orbit data source: Space-Track

TITAN 3C TRANSTAGE DEB, 1883 is space debris in LEO originally from a launch on Fri, 15 Oct 1965 UTC launched from the Air Force Eastern Test Range (AFETR). Debris objects in space refer to the collection of defunct objects orbiting the Earth. Examples of debris include non-operational satellites, rocket bodies, and fragments generated from explosions, collisions, or faulty payload assembly.

Loading next visibility...
Identifier
1883, 1965-082EY
Orbit
LEO
Country
Flag of USUS
Related business
Manufacturer
Unknown
Mission
Spacecraft
Bus & Motor
Unknown
Mass
Unknown
Launch date (UTC)
1965-10-15 (61 years ago)
Launch vehicle
Unknown
Launch site
Air Force Eastern Test Range (AFETR)
Object type
Payload
Rocket body
Debris
Shape & HBR
Unknown shape, 0.1 m
Radar Cross Section
Medium (>0.1 m² and <1 m²)

Expand to show TLE details & history
Last TLE update: 13 hours ago

TLE from 13 hours ago
0 TITAN 3C TRANSTAGE DEB
1 01883U 65082EY  26237.50197647  .00005290  00000-0  20725-3 0  9995
2 01883  32.0932 303.9783 0012769  52.7891 307.3935 15.24355235275886
Epoch: 2026-08-25T12:02Z
TLE epoch observation values (Epoch: 2026-08-25T12:02:50.767Z)
Latitude
-0°
Longitude
149.49835°
Altitude
486.011 km
Speed
7.628 km/s
True Right ascension
20h 15m 54s
True Declination
0° 00' 00"
Sunlit
Object was in full shadow at epoch
Visualization orbit readout
Latitude
Unknown
Longitude
Unknown
Altitude
Unknown
Speed
Unknown
Apparent Right ascension
Unknown
Apparent Declination
Unknown
Sunlit
N/A
Visualization observer readout
Local Sidereal Time
15:53:15
Azimuth
Unknown
Elevation
Unknown
Doppler factor
Unknown
Orbital elements
Apogee altitude
505.202 km
Perigee altitude
487.646 km
Semi-major axis
6,874.561 km
Eccentricity
0.00128
Inclination
32.0932°
RAAN
303.9783°
Arg. of periapsis
52.7891°
True anomaly
307.27714°
Mean anomaly
307.3935°
Eccentric anomaly
307.33533°
Mean motion
3.80781 °/min
Orbital period
94.54 mins
BSTAR
0.00020725

Documentation

Showing up to 5 results
|